Location: Kershaw
(34.5481°N, 80.5823°W)
Time: 16:41:53
(UTC+00:00)

Vanguard 1 Rocket - Pass Details

Date: 06 October 2022
Orbit: 650 x 4225 km, 34.3° (Epoch: 08 December)

Event Time Altitude Azimuth Distance (km) Brightness Sun altitude
Rises 01:31:39 0° 257° (WSW) 8,291 13.1 -31.6°
Reaches altitude 10° 01:37:52 10° 258° (WSW) 6,982 12.5 -32.8°
Maximum altitude 01:59:20 87° 173° (S) 2,489 9.3 -36.9°
Enters shadow 02:01:39 69° 91° (E) 2,409 9.1 -37.4°
Drops below altitude 10° 02:10:02 10° 85° (E) 3,812 - -39.0°
Sets 02:12:23 0° 85° (E) 4,485 - -39.4°
